TRA92R LEIB-EHRD

Flight info

Callsign TRA92R
Flight time 2h 0m
Altitude 36000
Route EPAMA N856 EBROX Z26 LATRO DCT OLOXO DCT OKABI DCT TOU DCT ADABI DCT BOKNO DCT DEVRO DCT VANAD DCT PIWIZ DCT VADOM DCT BAMES DCT ARSAF DCT EGOZE DCT CMB DCT VEKIN DCT ADUTO N873 FERDI Y18 DENUT
Aircraft B738/M-SDE2E3FGHIRWXY/LB1

Departure

Time 2026-05-08 09:09
Airport Ibiza Airport (LEIB)

Arrival

Time 2026-05-08 11:10
Airport Rotterdam The Hague Airport (EHRD)
Time Latitude Longitude Altitude Speed Heading
2026-05-08 08:49 38.87620 1.37059 7 ft 0 kts 332°
2026-05-08 09:01 38.87612 1.37064 7 ft 4 kts 332°
2026-05-08 09:01 38.87590 1.37079 7 ft 2 kts 332°
2026-05-08 09:01 38.87571 1.37097 7 ft 4 kts 289°
2026-05-08 09:01 38.87573 1.37127 7 ft 4 kts 242°
2026-05-08 09:02 38.87578 1.37139 7 ft 1 kts 241°
2026-05-08 09:02 38.87578 1.37140 7 ft 0 kts 241°
2026-05-08 09:04 38.87576 1.37134 8 ft 4 kts 241°
2026-05-08 09:04 38.87547 1.37065 8 ft 12 kts 242°
2026-05-08 09:04 38.87508 1.36970 9 ft 12 kts 242°
2026-05-08 09:04 38.87470 1.36878 9 ft 12 kts 242°
2026-05-08 09:05 38.87427 1.36796 7 ft 11 kts 204°
2026-05-08 09:05 38.87356 1.36828 7 ft 11 kts 153°
2026-05-08 09:05 38.87287 1.36852 7 ft 11 kts 205°
2026-05-08 09:05 38.87247 1.36772 7 ft 12 kts 243°
2026-05-08 09:06 38.87200 1.36653 7 ft 18 kts 243°
2026-05-08 09:06 38.87138 1.36502 7 ft 19 kts 242°
2026-05-08 09:06 38.87076 1.36354 7 ft 18 kts 242°
2026-05-08 09:06 38.87017 1.36214 7 ft 18 kts 242°
2026-05-08 09:07 38.86960 1.36076 7 ft 17 kts 243°
2026-05-08 09:07 38.86906 1.35942 8 ft 17 kts 243°
2026-05-08 09:07 38.86856 1.35827 7 ft 13 kts 220°
2026-05-08 09:07 38.86776 1.35850 7 ft 12 kts 148°
2026-05-08 09:08 38.86713 1.35917 5 ft 12 kts 98°
2026-05-08 09:08 38.86747 1.36015 4 ft 14 kts 63°
2026-05-08 09:08 38.86890 1.36360 3 ft 79 kts 62°
2026-05-08 09:08 38.87253 1.37237 6 ft 141 kts 62°
2026-05-08 09:09 38.87785 1.38481 321 ft 165 kts 61°
2026-05-08 09:09 38.88216 1.39854 1027 ft 170 kts 77°
2026-05-08 09:09 38.88472 1.41325 1816 ft 168 kts 76°
2026-05-08 09:09 38.88752 1.42892 2148 ft 197 kts 76°
2026-05-08 09:10 38.89100 1.44680 2507 ft 213 kts 75°
2026-05-08 09:10 38.89469 1.46539 3049 ft 219 kts 76°
2026-05-08 09:10 38.89836 1.48459 3582 ft 226 kts 77°
2026-05-08 09:10 38.90189 1.50441 4319 ft 227 kts 78°
2026-05-08 09:11 38.90540 1.52412 5109 ft 227 kts 78°
2026-05-08 09:11 38.91069 1.54323 5771 ft 232 kts 56°
2026-05-08 09:11 38.92211 1.55927 6066 ft 257 kts 43°
2026-05-08 09:11 38.93606 1.57500 6447 ft 274 kts 41°
2026-05-08 09:12 38.95064 1.59124 7119 ft 280 kts 41°
2026-05-08 09:12 38.96538 1.60786 7855 ft 283 kts 42°
2026-05-08 09:12 38.98017 1.62479 8564 ft 287 kts 42°
2026-05-08 09:12 38.99515 1.64191 9292 ft 290 kts 40°
2026-05-08 09:13 39.01312 1.65378 9947 ft 295 kts 12°
2026-05-08 09:13 39.03352 1.65726 10660 ft 298 kts
2026-05-08 09:13 39.05431 1.65981 11356 ft 302 kts
2026-05-08 09:13 39.07534 1.66245 12125 ft 305 kts
2026-05-08 09:14 39.09652 1.66339 12840 ft 306 kts 348°
2026-05-08 09:14 39.11715 1.65484 13143 ft 322 kts 335°
2026-05-08 09:14 39.13840 1.64300 13313 ft 343 kts 334°
2026-05-08 09:14 39.16060 1.63019 13469 ft 364 kts 334°
2026-05-08 09:15 39.18422 1.61654 13714 ft 379 kts 334°
2026-05-08 09:15 39.20859 1.60260 14243 ft 386 kts 334°
2026-05-08 09:15 39.23326 1.58859 14909 ft 389 kts 334°
2026-05-08 09:15 39.25814 1.57455 15579 ft 392 kts 334°
2026-05-08 09:16 39.28319 1.56046 16203 ft 395 kts 334°
2026-05-08 09:16 39.30853 1.54621 16800 ft 399 kts 334°
2026-05-08 09:16 39.33409 1.53185 17384 ft 402 kts 334°
2026-05-08 09:16 39.35982 1.51738 17957 ft 405 kts 334°
2026-05-08 09:17 39.38580 1.50276 18518 ft 409 kts 334°
2026-05-08 09:17 39.41197 1.48802 19045 ft 412 kts 334°
2026-05-08 09:17 39.43840 1.47311 19537 ft 416 kts 334°
2026-05-08 09:17 39.46503 1.45806 20045 ft 420 kts 334°
2026-05-08 09:18 39.49191 1.44288 20560 ft 423 kts 333°
2026-05-08 09:18 39.51898 1.42758 21012 ft 427 kts 334°
2026-05-08 09:18 39.54631 1.41212 21457 ft 430 kts 333°
2026-05-08 09:18 39.57382 1.39655 21895 ft 433 kts 333°
2026-05-08 09:19 39.60173 1.38134 22312 ft 438 kts 338°
2026-05-08 09:19 39.63189 1.37385 22704 ft 446 kts 352°
2026-05-08 09:19 39.66289 1.37021 23126 ft 448 kts 352°
2026-05-08 09:19 39.69408 1.36677 23493 ft 452 kts 352°
2026-05-08 09:20 39.72549 1.36320 23860 ft 455 kts 352°
2026-05-08 09:20 39.75713 1.35941 24221 ft 458 kts 352°
2026-05-08 09:20 39.77820 1.35679 24467 ft 459 kts 352°
2026-05-08 09:20 39.81006 1.35271 24837 ft 461 kts 352°
2026-05-08 09:21 39.84205 1.34851 25217 ft 463 kts 352°
2026-05-08 09:21 39.87417 1.34425 25571 ft 465 kts 352°
2026-05-08 09:22 40.06991 1.31817 27512 ft 476 kts 352°
2026-05-08 09:23 40.10287 1.31377 27806 ft 477 kts 352°
2026-05-08 09:23 40.13599 1.30935 28062 ft 480 kts 352°
2026-05-08 09:23 40.16924 1.30491 28316 ft 482 kts 351°
2026-05-08 09:23 40.20265 1.30045 28571 ft 483 kts 352°
2026-05-08 09:24 40.23612 1.29595 28858 ft 484 kts 352°
2026-05-08 09:24 40.26960 1.29147 29240 ft 483 kts 351°
2026-05-08 09:24 40.30293 1.28701 29668 ft 480 kts 351°
2026-05-08 09:24 40.33568 1.28261 30058 ft 479 kts 351°
2026-05-08 09:25 40.36925 1.27810 30390 ft 478 kts 351°
2026-05-08 09:25 40.40192 1.27369 30678 ft 479 kts 351°
2026-05-08 09:25 40.43503 1.26921 30996 ft 478 kts 351°
2026-05-08 09:25 40.46848 1.26468 31354 ft 477 kts 351°
2026-05-08 09:26 40.50109 1.26026 31663 ft 476 kts 351°
2026-05-08 09:26 40.53405 1.25580 31950 ft 477 kts 351°
2026-05-08 09:26 40.56701 1.25133 32261 ft 476 kts 351°
2026-05-08 09:26 40.59988 1.24686 32576 ft 475 kts 351°
2026-05-08 09:27 40.63271 1.24240 32863 ft 474 kts 351°
2026-05-08 09:27 40.66533 1.23796 33140 ft 474 kts 351°
2026-05-08 09:27 40.69852 1.23545 33401 ft 477 kts 358°
2026-05-08 09:27 40.73155 1.23926 33668 ft 479 kts
2026-05-08 09:28 40.76406 1.24953 33960 ft 480 kts 13°
2026-05-08 09:28 40.79626 1.26143 34214 ft 480 kts 13°
2026-05-08 09:28 40.82843 1.27359 34433 ft 481 kts 13°
2026-05-08 09:28 40.86060 1.28567 34663 ft 481 kts 13°
2026-05-08 09:29 40.89276 1.29758 34923 ft 480 kts 13°
2026-05-08 09:29 40.92487 1.30932 35200 ft 478 kts 13°
2026-05-08 09:29 40.95694 1.32093 35458 ft 477 kts 12°
2026-05-08 09:29 40.98898 1.33244 35663 ft 478 kts 12°
2026-05-08 09:30 41.02105 1.34398 35889 ft 477 kts 12°
2026-05-08 09:30 41.05309 1.35553 36034 ft 478 kts 12°
2026-05-08 09:30 41.08533 1.36715 36021 ft 481 kts 12°
2026-05-08 09:31 41.14976 1.39044 36023 ft 478 kts 12°
2026-05-08 09:31 41.21327 1.41349 36024 ft 474 kts 12°
2026-05-08 09:32 41.27676 1.43653 36026 ft 472 kts 12°
2026-05-08 09:32 41.34004 1.45956 36032 ft 470 kts 12°
2026-05-08 09:33 41.40307 1.48252 36025 ft 469 kts 12°
2026-05-08 09:33 41.46611 1.50554 36037 ft 470 kts 12°
2026-05-08 09:34 41.52935 1.52869 36028 ft 472 kts 12°
2026-05-08 09:34 41.59270 1.55195 36028 ft 473 kts 12°
2026-05-08 09:35 41.65625 1.57530 36032 ft 475 kts 12°
2026-05-08 09:35 41.72008 1.59883 36025 ft 476 kts 12°
2026-05-08 09:36 41.78471 1.61451 36033 ft 470 kts 358°
2026-05-08 09:36 41.84931 1.60753 36029 ft 465 kts 349°
2026-05-08 09:37 41.91354 1.59638 36029 ft 465 kts 349°
2026-05-08 09:37 41.97765 1.58569 36027 ft 464 kts 349°
2026-05-08 09:38 42.04166 1.57547 36047 ft 463 kts 349°
2026-05-08 09:38 42.10562 1.56543 36030 ft 463 kts 349°
2026-05-08 09:39 42.16912 1.55543 36045 ft 462 kts 349°
2026-05-08 09:39 42.23284 1.54528 36046 ft 460 kts 349°
2026-05-08 09:40 42.29637 1.53513 36045 ft 461 kts 349°
2026-05-08 09:40 42.36001 1.52499 36042 ft 461 kts 349°
2026-05-08 09:41 42.42372 1.51481 36043 ft 461 kts 349°
2026-05-08 09:41 42.48736 1.50470 36059 ft 460 kts 350°
2026-05-08 09:42 42.55104 1.49448 36053 ft 462 kts 349°
2026-05-08 09:42 42.61492 1.48422 36027 ft 462 kts 350°
2026-05-08 09:43 42.67886 1.47398 36056 ft 462 kts 349°
2026-05-08 09:43 42.74266 1.46342 36029 ft 462 kts 349°
2026-05-08 09:44 42.80635 1.45326 36033 ft 460 kts 350°
2026-05-08 09:44 42.86979 1.44309 36017 ft 459 kts 349°
2026-05-08 09:45 42.93305 1.43287 36013 ft 457 kts 349°
2026-05-08 09:45 42.99613 1.42263 36006 ft 455 kts 349°
2026-05-08 09:46 43.05851 1.41247 35999 ft 454 kts 349°
2026-05-08 09:46 43.12118 1.40225 36002 ft 453 kts 349°
2026-05-08 09:47 43.18379 1.39202 35984 ft 453 kts 350°
2026-05-08 09:47 43.24636 1.38177 35984 ft 453 kts 349°
2026-05-08 09:48 43.30890 1.37150 35983 ft 453 kts 349°
2026-05-08 09:48 43.37154 1.36121 35969 ft 454 kts 349°
2026-05-08 09:49 43.43419 1.35087 35966 ft 453 kts 349°
2026-05-08 09:49 43.49682 1.34054 35966 ft 453 kts 349°
2026-05-08 09:50 43.55944 1.33015 35964 ft 453 kts 349°
2026-05-08 09:50 43.62209 1.31979 35966 ft 453 kts 349°
2026-05-08 09:51 43.68472 1.30927 35962 ft 453 kts 348°
2026-05-08 09:51 43.74674 1.29459 35962 ft 451 kts 346°
2026-05-08 09:52 43.80832 1.27796 35965 ft 451 kts 345°
2026-05-08 09:52 43.86951 1.26156 35977 ft 450 kts 346°
2026-05-08 09:53 43.93150 1.24532 35971 ft 450 kts 346°
2026-05-08 09:53 43.99312 1.22935 35968 ft 450 kts 346°
2026-05-08 09:54 44.05468 1.21335 35976 ft 450 kts 346°
2026-05-08 09:54 44.11620 1.19733 35973 ft 449 kts 346°
2026-05-08 09:55 44.17762 1.18132 35973 ft 449 kts 346°
2026-05-08 09:55 44.23901 1.16525 35975 ft 449 kts 346°
2026-05-08 09:56 44.29996 1.14924 35969 ft 449 kts 346°
2026-05-08 09:56 44.36131 1.13312 35978 ft 448 kts 346°
2026-05-08 09:57 44.45324 1.10888 35972 ft 448 kts 346°
2026-05-08 09:57 44.51452 1.09268 35968 ft 448 kts 346°
2026-05-08 09:58 44.57579 1.07645 35975 ft 448 kts 346°
2026-05-08 09:58 44.63707 1.06020 35971 ft 448 kts 346°
2026-05-08 09:59 44.69834 1.04391 35973 ft 448 kts 346°
2026-05-08 09:59 44.75958 1.02758 35977 ft 448 kts 346°
2026-05-08 10:00 44.82091 1.01120 35970 ft 449 kts 346°
2026-05-08 10:00 44.88222 0.99479 35970 ft 449 kts 346°
2026-05-08 10:01 44.94360 0.97832 35974 ft 449 kts 346°
2026-05-08 10:01 45.00497 0.96182 35983 ft 449 kts 346°
2026-05-08 10:02 45.06636 0.94530 35969 ft 449 kts 346°
2026-05-08 10:02 45.12773 0.92873 35976 ft 449 kts 346°
2026-05-08 10:03 45.18904 0.91215 35975 ft 449 kts 346°
2026-05-08 10:03 45.25040 0.89549 35959 ft 449 kts 346°
2026-05-08 10:04 45.31168 0.87882 35968 ft 448 kts 346°
2026-05-08 10:04 45.37243 0.86228 35970 ft 447 kts 346°
2026-05-08 10:05 45.43351 0.84561 35975 ft 447 kts 346°
2026-05-08 10:05 45.49457 0.82890 35967 ft 447 kts 346°
2026-05-08 10:06 45.55564 0.81215 35976 ft 447 kts 346°
2026-05-08 10:06 45.61663 0.79539 35973 ft 446 kts 346°
2026-05-08 10:07 45.67763 0.77859 35981 ft 446 kts 346°
2026-05-08 10:07 45.73858 0.76177 35982 ft 447 kts 346°
2026-05-08 10:08 45.79964 0.74487 35983 ft 447 kts 346°
2026-05-08 10:08 45.86066 0.72796 35980 ft 447 kts 346°
2026-05-08 10:09 45.92174 0.71100 35979 ft 447 kts 346°
2026-05-08 10:09 45.98280 0.69398 35990 ft 447 kts 346°
2026-05-08 10:10 46.04388 0.67697 35995 ft 447 kts 346°
2026-05-08 10:10 46.10494 0.65987 35997 ft 447 kts 346°
2026-05-08 10:11 46.15560 0.64564 35993 ft 447 kts 346°
2026-05-08 10:11 46.21663 0.62849 35992 ft 447 kts 346°
2026-05-08 10:12 46.27751 0.61134 35986 ft 446 kts 346°
2026-05-08 10:12 46.33852 0.59411 35992 ft 446 kts 346°
2026-05-08 10:13 46.39947 0.57689 35986 ft 446 kts 346°
2026-05-08 10:13 46.46042 0.55961 35991 ft 446 kts 346°
2026-05-08 10:14 46.52130 0.54232 35992 ft 446 kts 347°
2026-05-08 10:14 46.58355 0.53828 35995 ft 452 kts
2026-05-08 10:15 46.64547 0.55701 35996 ft 456 kts 11°
2026-05-08 10:15 46.70718 0.57859 35998 ft 456 kts 10°
2026-05-08 10:16 46.76897 0.59955 36000 ft 456 kts 10°
2026-05-08 10:16 46.83093 0.62008 36003 ft 457 kts 10°
2026-05-08 10:17 46.89295 0.64063 36002 ft 457 kts 10°
2026-05-08 10:17 46.95501 0.66127 36002 ft 458 kts 10°
2026-05-08 10:18 47.01714 0.68200 36013 ft 458 kts 10°
2026-05-08 10:18 47.07976 0.69772 36016 ft 455 kts
2026-05-08 10:19 47.14291 0.70347 36005 ft 455 kts
2026-05-08 10:20 47.23764 0.71185 36015 ft 454 kts
2026-05-08 10:20 47.30077 0.71840 36018 ft 454 kts
2026-05-08 10:21 47.36379 0.72506 36016 ft 454 kts
2026-05-08 10:21 47.42677 0.73170 36018 ft 454 kts
2026-05-08 10:22 47.48970 0.73901 36015 ft 455 kts
2026-05-08 10:22 47.55103 0.76384 36021 ft 459 kts 16°
2026-05-08 10:23 47.61137 0.79488 36020 ft 459 kts 17°
2026-05-08 10:23 47.67145 0.82515 36018 ft 459 kts 16°
2026-05-08 10:24 47.73208 0.85509 36030 ft 459 kts 16°
2026-05-08 10:24 47.79267 0.88501 36030 ft 459 kts 16°
2026-05-08 10:25 47.85330 0.91509 36026 ft 460 kts 16°
2026-05-08 10:25 47.91402 0.94574 36030 ft 460 kts 17°
2026-05-08 10:26 47.97463 0.97651 36029 ft 460 kts 17°
2026-05-08 10:26 48.03526 1.00732 36038 ft 460 kts 17°
2026-05-08 10:27 48.09593 1.03819 36055 ft 460 kts 17°
2026-05-08 10:27 48.15660 1.06912 36048 ft 461 kts 17°
2026-05-08 10:28 48.21745 1.10023 36044 ft 462 kts 17°
2026-05-08 10:28 48.27838 1.13129 36047 ft 463 kts 17°
2026-05-08 10:29 48.33934 1.16236 36054 ft 463 kts 17°
2026-05-08 10:29 48.40037 1.19356 36054 ft 463 kts 17°
2026-05-08 10:30 48.46132 1.22483 36063 ft 463 kts 17°
2026-05-08 10:30 48.52232 1.25620 36065 ft 463 kts 17°
2026-05-08 10:31 48.58332 1.28745 36068 ft 464 kts 17°
2026-05-08 10:31 48.64466 1.31827 36065 ft 464 kts 17°
2026-05-08 10:32 48.70591 1.34910 36065 ft 464 kts 17°
2026-05-08 10:32 48.76677 1.37990 36072 ft 464 kts 17°
2026-05-08 10:33 48.82795 1.41097 36074 ft 464 kts 17°
2026-05-08 10:33 48.88916 1.44215 36074 ft 464 kts 17°
2026-05-08 10:34 48.94989 1.47550 36071 ft 466 kts 25°
2026-05-08 10:34 49.00302 1.53187 36067 ft 469 kts 44°
2026-05-08 10:35 49.04665 1.60566 36069 ft 469 kts 48°
2026-05-08 10:35 49.08938 1.68072 36075 ft 469 kts 48°
2026-05-08 10:36 49.13241 1.75537 36071 ft 469 kts 47°
2026-05-08 10:36 49.17567 1.82990 36076 ft 469 kts 47°
2026-05-08 10:37 49.21893 1.90454 36073 ft 470 kts 47°
2026-05-08 10:37 49.26219 1.97945 36077 ft 469 kts 48°
2026-05-08 10:38 49.30533 2.05441 36072 ft 469 kts 48°
2026-05-08 10:38 49.34848 2.12954 36074 ft 469 kts 48°
2026-05-08 10:39 49.39149 2.20471 36072 ft 469 kts 48°
2026-05-08 10:39 49.43446 2.28005 36079 ft 469 kts 48°
2026-05-08 10:40 49.47743 2.35558 36075 ft 469 kts 48°
2026-05-08 10:40 49.52034 2.43122 36073 ft 469 kts 49°
2026-05-08 10:41 49.56599 2.50252 36069 ft 467 kts 36°
2026-05-08 10:41 49.62052 2.55650 36074 ft 466 kts 31°
2026-05-08 10:42 49.67588 2.60873 36073 ft 466 kts 31°
2026-05-08 10:42 49.73096 2.66163 36075 ft 466 kts 31°
2026-05-08 10:43 49.78588 2.71511 36074 ft 467 kts 31°
2026-05-08 10:43 49.84074 2.76881 36077 ft 466 kts 31°
2026-05-08 10:44 49.89555 2.82263 36074 ft 467 kts 32°
2026-05-08 10:44 49.95040 2.87661 36075 ft 467 kts 32°
2026-05-08 10:45 50.00530 2.93075 36076 ft 467 kts 32°
2026-05-08 10:45 50.06020 2.98503 36083 ft 468 kts 32°
2026-05-08 10:46 50.11511 3.03951 36082 ft 468 kts 32°
2026-05-08 10:46 50.16993 3.09406 36020 ft 469 kts 32°
2026-05-08 10:46 50.19772 3.12174 35380 ft 475 kts 32°
2026-05-08 10:47 50.22513 3.14888 34766 ft 472 kts 31°
2026-05-08 10:47 50.25418 3.17285 34015 ft 472 kts 24°
2026-05-08 10:47 50.28423 3.19343 33301 ft 472 kts 22°
2026-05-08 10:47 50.31451 3.21337 32545 ft 472 kts 22°
2026-05-08 10:48 50.34470 3.23356 31776 ft 472 kts 23°
2026-05-08 10:48 50.37480 3.25432 30983 ft 473 kts 24°
2026-05-08 10:48 50.40486 3.27542 30164 ft 473 kts 24°
2026-05-08 10:48 50.43455 3.29775 29336 ft 473 kts 26°
2026-05-08 10:49 50.46383 3.32121 28625 ft 470 kts 27°
2026-05-08 10:49 50.49275 3.34441 28013 ft 465 kts 26°
2026-05-08 10:49 50.52152 3.36699 27394 ft 460 kts 25°
2026-05-08 10:49 50.55044 3.38779 26783 ft 455 kts 23°
2026-05-08 10:50 50.57935 3.40746 26181 ft 450 kts 22°
2026-05-08 10:50 50.60799 3.42662 25573 ft 446 kts 22°
2026-05-08 10:50 50.63643 3.44572 24970 ft 441 kts 22°
2026-05-08 10:50 50.66448 3.46476 24372 ft 437 kts 23°
2026-05-08 10:51 50.69225 3.48380 23774 ft 433 kts 23°
2026-05-08 10:51 50.71971 3.50273 23188 ft 429 kts 23°
2026-05-08 10:51 50.74693 3.52158 22590 ft 425 kts 23°
2026-05-08 10:51 50.77389 3.54027 22006 ft 421 kts 23°
2026-05-08 10:52 50.80063 3.55882 21416 ft 418 kts 23°
2026-05-08 10:52 50.82709 3.57719 20842 ft 414 kts 23°
2026-05-08 10:52 50.85339 3.59546 20266 ft 411 kts 23°
2026-05-08 10:52 50.87939 3.61354 19694 ft 407 kts 23°
2026-05-08 10:53 50.90567 3.62988 19113 ft 404 kts 16°
2026-05-08 10:53 50.93292 3.63911 18549 ft 400 kts
2026-05-08 10:53 50.96056 3.64162 17998 ft 395 kts
2026-05-08 10:53 50.98795 3.64295 17441 ft 392 kts
2026-05-08 10:54 51.01514 3.64422 16886 ft 389 kts
2026-05-08 10:54 51.04209 3.64563 16331 ft 386 kts
2026-05-08 10:54 51.06885 3.64718 15781 ft 383 kts
2026-05-08 10:54 51.09531 3.64882 15235 ft 380 kts
2026-05-08 10:55 51.12174 3.65052 14690 ft 377 kts
2026-05-08 10:55 51.14786 3.65223 14151 ft 375 kts
2026-05-08 10:55 51.17377 3.65393 13615 ft 372 kts
2026-05-08 10:55 51.19951 3.65561 13076 ft 369 kts
2026-05-08 10:56 51.22509 3.65813 12538 ft 367 kts
2026-05-08 10:56 51.24884 3.67190 12042 ft 363 kts 30°
2026-05-08 10:56 51.26969 3.69417 11548 ft 360 kts 36°
2026-05-08 10:56 51.28982 3.71773 11078 ft 356 kts 37°
2026-05-08 10:57 51.30929 3.74078 10942 ft 342 kts 36°
2026-05-08 10:57 51.32184 3.75553 10834 ft 334 kts 36°
2026-05-08 10:57 51.36674 3.79893 10342 ft 315 kts 26°
2026-05-08 10:58 51.37988 3.80922 10236 ft 308 kts 26°
2026-05-08 10:58 51.40504 3.82907 9866 ft 304 kts 26°
2026-05-08 10:58 51.42354 3.84378 9879 ft 290 kts 27°
2026-05-08 10:58 51.43557 3.85345 9862 ft 281 kts 27°
2026-05-08 10:59 51.45297 3.86754 9574 ft 279 kts 27°
2026-05-08 10:59 51.47013 3.88154 9368 ft 274 kts 27°
2026-05-08 10:59 51.48705 3.89541 9088 ft 273 kts 27°
2026-05-08 10:59 51.50392 3.90929 8801 ft 272 kts 27°
2026-05-08 11:00 51.52065 3.92309 8515 ft 270 kts 27°
2026-05-08 11:00 51.53713 3.93670 8244 ft 269 kts 27°
2026-05-08 11:00 51.55367 3.95038 7939 ft 268 kts 27°
2026-05-08 11:00 51.57024 3.96412 7656 ft 267 kts 27°
2026-05-08 11:01 51.58664 3.97774 7358 ft 263 kts 27°
2026-05-08 11:01 51.60288 3.99123 6953 ft 263 kts 27°
2026-05-08 11:01 51.61914 4.00475 6559 ft 262 kts 27°
2026-05-08 11:01 51.63528 4.01819 6196 ft 260 kts 27°
2026-05-08 11:02 51.65138 4.03160 5825 ft 260 kts 27°
2026-05-08 11:02 51.68333 4.05825 5270 ft 258 kts 27°
2026-05-08 11:02 51.69924 4.07153 4999 ft 256 kts 27°
2026-05-08 11:03 51.71501 4.08469 4738 ft 255 kts 27°
2026-05-08 11:03 51.73075 4.09785 4477 ft 254 kts 28°
2026-05-08 11:03 51.74624 4.11082 4313 ft 247 kts 28°
2026-05-08 11:03 51.76127 4.12341 4197 ft 240 kts 28°
2026-05-08 11:04 51.77589 4.13568 4092 ft 232 kts 28°
2026-05-08 11:04 51.78996 4.14749 3992 ft 225 kts 28°
2026-05-08 11:04 51.80362 4.15895 3893 ft 217 kts 28°
2026-05-08 11:04 51.81687 4.17008 3725 ft 214 kts 28°
2026-05-08 11:05 51.82989 4.18103 3556 ft 207 kts 28°
2026-05-08 11:05 51.84254 4.19166 3330 ft 202 kts 28°
2026-05-08 11:05 51.85487 4.20203 3112 ft 198 kts 28°
2026-05-08 11:05 51.86620 4.21401 2874 ft 194 kts 50°
2026-05-08 11:06 51.87339 4.23190 2739 ft 185 kts 56°
2026-05-08 11:06 51.88096 4.24892 2573 ft 190 kts 57°
2026-05-08 11:06 51.88803 4.26680 2347 ft 187 kts 58°
2026-05-08 11:06 51.89486 4.28421 2103 ft 179 kts 58°
2026-05-08 11:07 51.90135 4.30057 1877 ft 165 kts 58°
2026-05-08 11:07 51.90736 4.31578 1634 ft 155 kts 58°
2026-05-08 11:07 51.91303 4.33000 1459 ft 146 kts 58°
2026-05-08 11:07 51.91838 4.34336 1326 ft 137 kts 58°
2026-05-08 11:08 51.92344 4.35621 1152 ft 134 kts 59°
2026-05-08 11:08 51.92847 4.36910 979 ft 136 kts 57°
2026-05-08 11:08 51.93375 4.38200 806 ft 139 kts 58°
2026-05-08 11:08 51.93898 4.39530 620 ft 140 kts 58°
2026-05-08 11:09 51.94429 4.40859 416 ft 141 kts 58°
2026-05-08 11:09 51.94963 4.42198 182 ft 142 kts 58°
2026-05-08 11:09 51.95493 4.43531 9 ft 135 kts 58°
2026-05-08 11:09 51.95935 4.44641 -2 ft 90 kts 57°
2026-05-08 11:10 51.96135 4.45141 1 ft 24 kts 57°
2026-05-08 11:10 51.96144 4.45303 3 ft 15 kts 121°
2026-05-08 11:10 51.96066 4.45393 0 ft 14 kts 183°
2026-05-08 11:10 51.95998 4.45288 1 ft 14 kts 237°
2026-05-08 11:11 51.95947 4.45163 0 ft 13 kts 236°
2026-05-08 11:11 51.95898 4.45041 0 ft 13 kts 237°
2026-05-08 11:11 51.95851 4.44922 0 ft 12 kts 237°
2026-05-08 11:11 51.95805 4.44806 1 ft 12 kts 237°
2026-05-08 11:12 51.95758 4.44686 0 ft 14 kts 237°
2026-05-08 11:12 51.95692 4.44522 1 ft 19 kts 237°
2026-05-08 11:12 51.95618 4.44339 0 ft 19 kts 237°
2026-05-08 11:12 51.95547 4.44161 1 ft 18 kts 237°
2026-05-08 11:13 51.95478 4.43989 1 ft 18 kts 237°
2026-05-08 11:13 51.95411 4.43824 0 ft 17 kts 237°
2026-05-08 11:13 51.95347 4.43664 1 ft 17 kts 237°